KI4HRG Weather Reports


time (UTC)temp
C
wind
direction
speed
KPH
gust
KPH
rain 1hr
cm
rain 24hr
cm
rain mn
cm
humidity
%
barometer
mb
20260504220126 26 217 1.6 3.2 0.00 0.00 0.00 39 1013.5
20260504215621 26 285 1.6 3.2 0.00 0.00 0.00 37 1013.3
20260504215119 26 192 1.6 3.2 0.00 0.00 0.00 40 1013.4
20260504214614 26 159 1.6 4.8 0.00 0.00 0.00 41 1013.4
20260504214111 26 40 1.6 3.2 0.00 0.00 0.00 38 1013.6
20260504213608 26 226 0.0 3.2 0.00 0.00 0.00 39 1013.4
20260504213105 26 100 3.2 4.8 0.00 0.00 0.00 37 1013.5
20260504212600 26 135 4.8 9.7 0.00 0.00 0.00 39 1013.6
20260504212058 26 150 1.6 3.2 0.00 0.00 0.00 39 1013.3
20260504211555 26 216 3.2 4.8 0.00 0.00 0.00 39 1013.7
20260504211051 25 130 1.6 8.0 0.00 0.00 0.00 41 1013.6
20260504210549 26 179 1.6 3.2 0.00 0.00 0.00 41 1013.6
20260504210045 26 326 1.6 4.8 0.00 0.00 0.00 41 1013.5
20260504205543 26 111 3.2 3.2 0.00 0.00 0.00 40 1013.6
20260504205041 26 321 0.0 3.2 0.00 0.00 0.00 41 1013.7
20260504204538 25 184 4.8 9.7 0.00 0.00 0.00 43 1013.6
20260504204038 26 290 3.2 3.2 0.00 0.00 0.00 40 1013.8
20260504203535 26 170 1.6 3.2 0.00 0.00 0.00 40 1013.8
20260504203032 26 264 0.0 1.6 0.00 0.00 0.00 40 1013.8
20260504202528 27 246 1.6 3.2 0.00 0.00 0.00 39 1013.8
20260504202025 26 190 1.6 4.8 0.00 0.00 0.00 41 1013.8
20260504201522 26 289 1.6 1.6 0.00 0.00 0.00 40 1013.9
20260504201020 26 209 0.0 3.2 0.00 0.00 0.00 40 1014.0
20260504200516 25 153 1.6 14.5 0.00 0.00 0.00 43 1014.0
20260504200013 26 292 0.0 1.6 0.00 0.00 0.00 40 1013.9
20260504195509 26 228 1.6 4.8 0.00 0.00 0.00 40 1014.0
20260504195006 25 54 4.8 4.8 0.00 0.00 0.00 40 1014.3
20260504194502 25 145 8.0 14.5 0.00 0.00 0.00 41 1014.4
20260504193957 25 156 0.0 1.6 0.00 0.00 0.00 43 1014.4
20260504193455 26 120 1.6 4.8 0.00 0.00 0.00 42 1014.3
20260504192953 25 208 0.0 1.6 0.00 0.00 0.00 40 1014.6
20260504192450 25 204 1.6 1.6 0.00 0.00 0.00 43 1014.6
20260504191949 26 148 4.8 9.7 0.00 0.00 0.00 42 1014.7
20260504191447 26 245 1.6 3.2 0.00 0.00 0.00 44 1014.7
20260504190942 25 191 3.2 8.0 0.00 0.00 0.00 44 1014.9
20260504190438 25 150 3.2 4.8 0.00 0.00 0.00 43 1014.8
20260504185935 25 131 3.2 3.2 0.00 0.00 0.00 41 1015.0
20260504185432 25 134 0.0 1.6 0.00 0.00 0.00 43 1015.0
20260504184928 25 112 1.6 9.7 0.00 0.00 0.00 42 1015.2
20260504184424 26 235 1.6 1.6 0.00 0.00 0.00 41 1015.2
20260504183920 25 230 1.6 3.2 0.00 0.00 0.00 42 1015.3
20260504183417 25 19 0.0 4.8 0.00 0.00 0.00 42 1015.3
20260504182915 26 112 1.6 8.0 0.00 0.00 0.00 42 1015.5
20260504182412 24 310 1.6 4.8 0.00 0.00 0.00 43 1015.6
20260504181909 25 128 3.2 3.2 0.00 0.00 0.00 43 1015.8
20260504181406 25 104 1.6 4.8 0.00 0.00 0.00 41 1015.8
20260504180905 25 238 1.6 3.2 0.00 0.00 0.00 42 1015.8
20260504180403 24 105 8.0 11.3 0.00 0.00 0.00 45 1015.7
20260504175901 25 205 3.2 3.2 0.00 0.00 0.00 44 1015.8
20260504175357 25 304 1.6 3.2 0.00 0.00 0.00 45 1015.9
20260504174855 23 66 0.0 3.2 0.00 0.00 0.00 46 1016.1
20260504174352 26 272 0.0 8.0 0.00 0.00 0.00 44 1016.1
20260504173849 25 120 1.6 3.2 0.00 0.00 0.00 43 1015.9
20260504173346 25 15 1.6 1.6 0.00 0.00 0.00 45 1016.0
20260504172843 24 17 0.0 1.6 0.00 0.00 0.00 46 1016.2
20260504172340 25 338 1.6 3.2 0.00 0.00 0.00 43 1016.1
20260504171835 24 117 1.6 4.8 0.00 0.00 0.00 44 1016.4
20260504171333 25 175 1.6 3.2 0.00 0.00 0.00 45 1016.3
20260504170830 25 353 0.0 4.8 0.00 0.00 0.00 44 1016.4
20260504170327 25 337 0.0 1.6 0.00 0.00 0.00 44 1016.7
20260504160245 23 227 0.0 1.6 0.00 0.00 0.00 49 1017.4
20260504150711 21 153 0.0 8.0 0.00 0.00 0.00 56 1017.5
20260504150207 20 338 0.0 3.2 0.00 0.00 0.00 55 1017.6
20260504141136 18 6 0.0 3.2 0.00 0.00 0.00 64 1017.8
20260504140633 17 173 0.0 3.2 0.00 0.00 0.00 64 1018.0
20260504140129 17 158 0.0 3.2 0.00 0.00 0.00 64 1017.9
20260504130557 15 59 0.0 1.6 0.00 0.00 0.00 72 1018.0
20260504110445 6 330 0.0 0.0 0.00 0.00 0.00 99 1017.2
20260504100401 7 336 0.0 0.0 0.00 0.00 0.00 99 1017.3
20260504081754 7 350 0.0 0.0 0.00 0.00 0.00 99 1017.1
20260504081251 7 350 0.0 0.0 0.00 0.00 0.00 99 1016.9
20260504080748 7 342 0.0 0.0 0.00 0.00 0.00 99 1017.2
20260504080244 7 338 0.0 0.0 0.00 0.00 0.00 99 1017.3
20260504070212 8 336 0.0 0.0 0.00 0.00 0.00 98 1017.5
20260504060132 8 336 0.0 0.0 0.00 0.00 0.00 95 1018.1
20260504050600 10 338 0.0 0.0 0.00 0.00 0.00 92 1018.2
20260504045554 10 330 0.0 0.0 0.00 0.00 0.00 90 1018.2
20260504045049 10 329 0.0 0.0 0.00 0.00 0.00 90 1018.3
20260504044547 10 328 0.0 0.0 0.00 0.00 0.00 89 1018.2
20260504044044 10 324 0.0 0.0 0.00 0.00 0.00 90 1018.3
20260504043541 10 326 0.0 0.0 0.00 0.00 0.00 89 1018.3
20260504043038 10 337 0.0 0.0 0.00 0.00 0.00 89 1018.5
20260504042535 10 331 0.0 0.0 0.00 0.00 0.00 88 1018.6
20260504042032 10 348 0.0 0.0 0.00 0.00 0.00 88 1018.5
20260504041528 10 349 0.0 0.0 0.00 0.00 0.00 88 1018.5
20260504041024 10 330 0.0 0.0 0.00 0.00 0.00 86 1018.5
20260504040522 10 330 0.0 0.0 0.00 0.00 0.00 85 1018.4
20260504040018 11 327 0.0 0.0 0.00 0.00 0.00 85 1018.8
20260504035515 11 335 0.0 0.0 0.00 0.00 0.00 85 1018.4
20260504035011 11 330 0.0 0.0 0.00 0.00 0.00 85 1018.6
20260504034509 11 337 0.0 0.0 0.00 0.00 0.00 85 1018.7
20260504034006 11 337 0.0 0.0 0.00 0.00 0.00 84 1018.7
20260504033504 11 337 0.0 0.0 0.00 0.00 0.00 84 1018.8
20260504033001 11 333 0.0 0.0 0.00 0.00 0.00 83 1018.8
20260504032458 11 330 0.0 0.0 0.00 0.00 0.00 82 1018.8
20260504031954 11 324 0.0 0.0 0.00 0.00 0.00 82 1018.8
20260504031451 11 334 0.0 0.0 0.00 0.00 0.00 83 1018.9
20260504030948 11 334 0.0 0.0 0.00 0.00 0.00 82 1018.6
20260504030445 11 333 0.0 0.0 0.00 0.00 0.00 82 1018.7
20260504025941 11 333 0.0 0.0 0.00 0.00 0.00 81 1018.7
20260504025438 11 335 0.0 0.0 0.00 0.00 0.00 81 1018.7
20260504024935 11 327 0.0 0.0 0.00 0.00 0.00 79 1018.5
20260504024432 12 320 0.0 0.0 0.00 0.00 0.00 79 1018.5
20260504023929 12 320 0.0 0.0 0.00 0.00 0.00 77 1018.4
20260504023425 12 320 0.0 0.0 0.00 0.00 0.00 77 1018.4
20260504022921 12 320 0.0 0.0 0.00 0.00 0.00 75 1018.5
20260504022418 12 319 0.0 0.0 0.00 0.00 0.00 75 1018.3
20260504021914 12 319 0.0 0.0 0.00 0.00 0.00 74 1018.1
20260504021412 12 320 0.0 0.0 0.00 0.00 0.00 74 1018.3
20260504020909 13 320 0.0 0.0 0.00 0.00 0.00 74 1018.2
20260504020405 13 319 0.0 0.0 0.00 0.00 0.00 74 1018.2
20260504015902 13 320 0.0 0.0 0.00 0.00 0.00 73 1018.1
20260504015358 13 319 0.0 0.0 0.00 0.00 0.00 73 1018.1
20260504014854 13 319 0.0 0.0 0.00 0.00 0.00 72 1018.2
20260504014350 13 319 0.0 0.0 0.00 0.00 0.00 72 1018.0
20260504013848 13 319 0.0 0.0 0.00 0.00 0.00 71 1018.1
20260504013345 13 319 0.0 0.0 0.00 0.00 0.00 69 1018.0
20260504012842 13 319 0.0 0.0 0.00 0.00 0.00 70 1017.9
20260504012340 14 319 0.0 0.0 0.00 0.00 0.00 68 1017.7
20260504011837 15 319 0.0 0.0 0.00 0.00 0.00 67 1017.8
20260504011333 15 319 0.0 0.0 0.00 0.00 0.00 66 1017.8
20260504010830 15 319 0.0 0.0 0.00 0.00 0.00 65 1017.8
20260504010325 15 319 0.0 0.0 0.00 0.00 0.00 64 1017.7
20260504005822 15 319 0.0 0.0 0.00 0.00 0.00 61 1017.8
20260504005319 16 319 0.0 0.0 0.00 0.00 0.00 60 1017.6
20260504004816 16 319 0.0 0.0 0.00 0.00 0.00 59 1017.6
20260504004314 16 319 0.0 0.0 0.00 0.00 0.00 57 1017.5
20260504003810 16 319 0.0 0.0 0.00 0.00 0.00 58 1017.6
20260504003307 16 319 0.0 0.0 0.00 0.00 0.00 58 1017.5
20260504002803 16 319 0.0 0.0 0.00 0.00 0.00 57 1017.5
20260504002301 17 319 0.0 0.0 0.00 0.00 0.00 56 1017.5
20260504001758 17 319 0.0 0.0 0.00 0.00 0.00 55 1017.4
20260504001255 17 319 0.0 0.0 0.00 0.00 0.00 55 1017.5
20260504000752 17 319 0.0 0.0 0.00 0.00 0.00 55 1017.5
20260504000249 17 319 0.0 0.0 0.00 0.00 0.00 53 1017.4
20260503235747 18 319 0.0 0.0 0.00 0.00 0.00 54 1017.5
20260503235244 18 319 0.0 0.0 0.00 0.00 0.00 53 1017.5
20260503234741 18 326 0.0 0.0 0.00 0.00 0.00 52 1017.4
20260503234239 18 319 0.0 0.0 0.00 0.00 0.00 48 1017.3
20260503233736 18 325 0.0 0.0 0.00 0.00 0.00 49 1017.3
20260503233232 19 331 0.0 0.0 0.00 0.00 0.00 47 1017.3
20260503232729 20 337 0.0 1.6 0.00 0.00 0.00 46 1017.1
20260503232226 20 160 0.0 1.6 0.00 0.00 0.00 43 1017.4
20260503231725 20 304 1.6 1.6 0.00 0.00 0.00 43 1017.6
20260503231221 20 327 0.0 0.0 0.00 0.00 0.00 43 1017.4
20260503230717 20 85 0.0 0.0 0.00 0.00 0.00 42 1017.4
20260503230214 20 323 1.6 1.6 0.00 0.00 0.00 44 1017.4
20260503225711 20 10 4.8 8.0 0.00 0.00 0.00 40 1017.5
20260503225206 20 343 1.6 1.6 0.00 0.00 0.00 41 1017.3
20260503224704 20 29 1.6 3.2 0.00 0.00 0.00 42 1017.3
20260503224201 21 303 1.6 1.6 0.00 0.00 0.00 40 1017.6
20260503223659 21 271 0.0 1.6 0.00 0.00 0.00 40 1017.6
20260503223156 21 282 1.6 3.2 0.00 0.00 0.00 38 1017.5
20260503222652 21 16 3.2 8.0 0.00 0.00 0.00 38 1017.7
20260503222150 21 321 0.0 1.6 0.00 0.00 0.00 37 1017.5
20260503221649 21 183 1.6 1.6 0.00 0.00 0.00 38 1017.6
20260503221145 21 65 0.0 1.6 0.00 0.00 0.00 37 1017.5
20260503220642 22 295 0.0 3.2 0.00 0.00 0.00 36 1017.5